Regional Weather Roundup
Issued by NWS

Home | Current Version | Previous Version | Text Only | Print | Product List | Glossary Off
Versions: 1 2 3 4 5 6 7 8 9 10 11 12 13 14 15 16 17 18 19 20 21 22 23 24 25 26 27 28 29 30 31 32 33 34 35 36 37 38 39 40 41 42 43 44 45 46 47 48 49 50

000
ASUS45 KBOU 181807
RWRCO

WEATHER ROUNDUP FOR COLORADO
NATIONAL WEATHER SERVICE DENVER/BOULDER CO
1200 PM MDT SAT APR 18 2015

NOTE: "FAIR" INDICATES FEW OR NO CLOUDS BELOW 12000 FEET WITH NO
SIGNIFICANT WEATHER AND/OR OBSTRUCTIONS TO VISIBILITY.

COZ001>005-013-030-031-181900-
...NORTHWEST COLORADO...

CITY           SKY/WX    TMP DP  RH WIND       PRES   REMARKS
CRAIG          LGT SNOW  34  32  92 S7        29.98S VSB 3/4 WCI  28
HAYDEN         CLOUDY    34  30  86 CALM      29.98S VSB 1
MEEKER         HVY SNOW  33  32  96 CALM      29.99S VSB 1/4
MOUNT WERNER   NOT AVBL
STEAMBOAT SPGS CLOUDY    32  30  91 CALM      29.97S
WALDEN         CLOUDY    32  28  86 N3        29.95S
$$

COZ006>008-011-181900-
...WEST CENTRAL VALLEYS...

CITY           SKY/WX    TMP DP  RH WIND       PRES   REMARKS
GRAND JUNCTION CLOUDY    39  36  89 SE7       30.02S
MONTROSE       CLOUDY    40  33  76 S7        30.04F
EAGLE          LGT SNOW  37  32  81 CALM      30.02S FOG
RIFLE          SNOW      33  32  96 NE5       30.02S VSB 1/2 WCI  29
DELTA          CLOUDY    39  36  91 NE3       30.04F
NUCLA          DRIZZLE   37  34  87 SW3       30.08F
$$

COZ017>023-064>068-181900-
...SOUTHWEST COLORADO...

CITY           SKY/WX    TMP DP  RH WIND       PRES   REMARKS
DURANGO        CLOUDY    38  32  79 SW13      30.02S
CORTEZ         CLOUDY    44  35  70 VRB3      30.05F
PAGOSA SPRINGS CLOUDY    42  18  38 W14       29.99F
TELLURIDE      LGT SNOW  29  24  82 CALM      30.06S VSB 1
WOLF CREEK PAS CLOUDY    21  10  63 W8        30.04R WCI  12
$$

COZ009-010-012-014-032>034-037-058>063-181900-
...CENTRAL COLORADO...

CITY           SKY/WX    TMP DP  RH WIND       PRES   REMARKS
ASPEN          LGT SNOW  31  27  85 CALM      29.97S VSB 1
BUENA VISTA    CLOUDY    33  20  59 CALM      29.95S
COPPER MTN     CLOUDY    27  18  69 W14       29.96S WCI  15
BERTHOUD PASS  FLURRIES  16   9  73 CALM      29.97S
COTTONWOOD PAS CLOUDY    32  21  64 CALM      29.96S
GUNNISON       CLOUDY    28  23  80 NE5       30.04F WCI  23
KREMMLING      FLURRIES  36  28  75 CALM      29.97F
LEADVILLE      LGT SNOW  30  19  63 CALM      29.93F
MONARCH PASS   CLOUDY    18  14  86 MISG      30.06F
SALIDA         CLOUDY    40  23  49 N5        30.01F
SUNLIGHT       SNOW     N/A N/A N/A CALM      30.02S VSB 1/2
WILKERSON PASS CLOUDY    27  19  74 NE7       29.97S WCI  19
$$

COZ069>075-181900-
...SAN LUIS VALLEY/SANGRE DE CRISTO MOUNTAINS...

CITY           SKY/WX    TMP DP  RH WIND       PRES   REMARKS
ALAMOSA        MOSUNNY   43  17  35 NE7       29.95F
LA VETA PASS   MOSUNNY   34  19  55 S6G17     29.95S WCI  29
SAGUACHE       PTSUNNY   37  25  60 NW21G31   29.95F
$$

COZ035-036-038>040-181900-
...NORTHERN COLORADO FRONT RANGE...

CITY           SKY/WX    TMP DP  RH WIND       PRES   REMARKS
DENVER INTL AP PTSUNNY   48  36  63 CALM      29.92F
DMNS CITY PARK   N/A     51  33  48 E2G9      29.91F
AURORA         PTSUNNY   46  36  66 N6        29.92F
FRONT RANGE AP PTSUNNY   46  39  76 N5        29.93F
ERIE MUNI ARPT PTSUNNY   49  38  65 W5        29.92F
BOULDER MUN AP PTSUNNY   46  37  71 CALM      29.93F
CENTENNIAL     PTSUNNY   42  34  73 NE5       29.92F
BROOMFIELD     PTSUNNY   46  32  57 NW5       29.93F
FORT COLLINS   MOSUNNY   46  34  61 S6        29.93F
LONGMONT       MOSUNNY   53  36  52 E7        29.94F
$$

COZ041-046-047-076>085-087-088-181900-
...PIKES PEAK/PALMER DIVIDE AND SOUTHERN FOOTHILLS...

CITY           SKY/WX    TMP DP  RH WIND       PRES   REMARKS
COLO. SPRINGS  FLURRIES  47  26  44 NE8       29.90F
A. F. ACADEMY  MOSUNNY   46  27  48 N15       29.89F
ELLICOTT       MOSUNNY  N/A N/A N/A N14       29.89F
FALCON         MOSUNNY   43  30  59 N15       29.92F
FORT CARSON    MOSUNNY   47  31  53 SE10      29.88F
LIMON          LGT RAIN  39  36  89 NW12      29.92F
MONUMENT HILL  MOSUNNY   37  30  75 NW7       29.92F
TRINIDAD       SUNNY     51  20  29 VRB3      29.90F
$$

COZ042>045-048>051-090-091-181900-
...NORTHEAST COLORADO...

CITY           SKY/WX    TMP DP  RH WIND       PRES   REMARKS
GREELEY ARPT   PTSUNNY   48  36  61 NE3       29.93F
AKRON          CLOUDY    47  43  86 N8        29.91F
BURLINGTON     CLOUDY    50  44  80 NE5       29.89F
WRAY           CLOUDY    56  44  62 E7        29.89F
STERLING       CLOUDY    50  43  76 CALM      29.91S
HOLYOKE        PTSUNNY   59  41  51 E9        29.90F
FORT MORGAN    LGT RAIN  46  39  76 W5        29.93S
$$

COZ086-089-092>099-181900-
...SOUTHEAST COLORADO...

CITY           SKY/WX    TMP DP  RH WIND       PRES   REMARKS
PUEBLO         MOSUNNY   52  31  44 VRB5      29.88F
LA JUNTA       PTSUNNY   55  34  45 NW9       29.88F
LAMAR          CLOUDY    56  35  45 W8G21     29.87F
SPRINGFIELD      N/A     50  29  44 NW10G16   29.90F
$$


USA.gov is the U.S. government's official web portal to all federal, state and local government web resources and services.